| time (UTC) | temp F | wind direction | speed MPH | gust MPH | rain 1hr in | rain 24hr in | rain mn in | humidity % | barometer mb |
| 20260507142011 | 53 | 270 | 0.0 | 0.0 | 0.00 | 0.52 | 0.00 | 47 | 1015.7 |
| 20260507141511 | 53 | 270 | 0.0 | 0.0 | 0.00 | 0.52 | 0.00 | 47 | 1015.6 |
| 20260507141008 | 53 | 270 | 0.0 | 1.0 | 0.00 | 0.52 | 0.00 | 45 | 1015.7 |
| 20260507140507 | 53 | 270 | 0.0 | 4.0 | 0.00 | 0.52 | 0.00 | 44 | 1015.6 |
| 20260507140025 | 53 | 270 | 0.0 | 4.0 | 0.00 | 0.52 | 0.00 | 42 | 1015.5 |
| 20260507135508 | 53 | 270 | 0.0 | 3.0 | 0.00 | 0.52 | 0.00 | 42 | 1015.5 |
| 20260507135008 | 53 | 270 | 0.0 | 4.0 | 0.00 | 0.52 | 0.00 | 43 | 1015.4 |
| 20260507134520 | 53 | 270 | 0.0 | 5.0 | 0.00 | 0.52 | 0.00 | 42 | 1015.3 |
| 20260507134009 | 53 | 270 | 0.0 | 5.0 | 0.00 | 0.52 | 0.00 | 43 | 1015.3 |
| 20260507133510 | 52 | 270 | 2.0 | 4.0 | 0.00 | 0.52 | 0.00 | 43 | 1015.1 |
| 20260507133024 | 52 | 270 | 1.0 | 5.0 | 0.00 | 0.52 | 0.00 | 43 | 1015.3 |
| 20260507132508 | 52 | 347 | 1.0 | 5.0 | 0.00 | 0.52 | 0.00 | 43 | 1015.1 |
| 20260507132008 | 51 | 333 | 2.0 | 6.0 | 0.00 | 0.52 | 0.00 | 43 | 1015.1 |
| 20260507131532 | 51 | 284 | 1.0 | 6.0 | 0.00 | 0.52 | 0.00 | 44 | 1015.0 |
| 20260507131009 | 51 | 275 | 1.0 | 4.0 | 0.00 | 0.52 | 0.00 | 45 | 1015.0 |
| 20260507130508 | 50 | 270 | 0.0 | 3.0 | 0.00 | 0.52 | 0.00 | 45 | 1014.9 |
| 20260507130012 | 50 | 270 | 0.0 | 9.0 | 0.00 | 0.52 | 0.00 | 45 | 1014.9 |
| 20260507125504 | 50 | 270 | 4.0 | 9.0 | 0.00 | 0.52 | 0.00 | 44 | 1014.9 |
| 20260507125011 | 49 | 270 | 2.0 | 11.0 | 0.00 | 0.52 | 0.00 | 46 | 1014.9 |
| 20260507124518 | 48 | 321 | 2.0 | 11.0 | 0.00 | 0.52 | 0.00 | 48 | 1014.7 |
| 20260507124012 | 47 | 270 | 4.0 | 11.0 | 0.00 | 0.52 | 0.00 | 49 | 1014.5 |
| 20260507123511 | 45 | 270 | 2.0 | 8.0 | 0.00 | 0.52 | 0.00 | 52 | 1014.5 |
| 20260507123024 | 44 | 270 | 0.0 | 3.0 | 0.00 | 0.52 | 0.00 | 54 | 1014.6 |
| 20260507122514 | 44 | 270 | 0.0 | 1.0 | 0.00 | 0.52 | 0.00 | 56 | 1014.6 |
| 20260507122010 | 44 | 305 | 0.0 | 0.0 | 0.00 | 0.52 | 0.00 | 57 | 1014.6 |
| 20260507121522 | 45 | 305 | 0.0 | 0.0 | 0.00 | 0.52 | 0.00 | 56 | 1014.8 |
| 20260507121008 | 45 | 305 | 0.0 | 0.0 | 0.00 | 0.52 | 0.00 | 55 | 1014.8 |
| 20260507120508 | 45 | 305 | 0.0 | 1.0 | 0.00 | 0.52 | 0.00 | 54 | 1014.9 |
| 20260507120022 | 45 | 305 | 0.0 | 1.0 | 0.00 | 0.52 | 0.00 | 51 | 1014.9 |
| 20260507115511 | 45 | 281 | 0.0 | 3.0 | 0.00 | 0.52 | 0.00 | 51 | 1014.9 |
| 20260507115014 | 46 | 275 | 0.0 | 3.0 | 0.00 | 0.52 | 0.00 | 50 | 1014.8 |
| 20260507114511 | 46 | 275 | 0.0 | 5.0 | 0.00 | 0.52 | 0.00 | 50 | 1014.8 |
| 20260507114008 | 46 | 252 | 0.0 | 5.0 | 0.00 | 0.52 | 0.00 | 50 | 1014.7 |
| 20260507113506 | 46 | 288 | 1.0 | 4.0 | 0.00 | 0.52 | 0.00 | 49 | 1014.7 |
| 20260507113016 | 46 | 258 | 1.0 | 7.0 | 0.00 | 0.52 | 0.00 | 49 | 1014.6 |
| 20260507112509 | 46 | 292 | 0.0 | 7.0 | 0.00 | 0.52 | 0.00 | 50 | 1014.6 |
| 20260507112010 | 46 | 260 | 3.0 | 10.0 | 0.00 | 0.52 | 0.00 | 50 | 1014.5 |
| 20260507111520 | 45 | 287 | 5.0 | 10.0 | 0.00 | 0.52 | 0.00 | 52 | 1014.5 |
| 20260507111007 | 44 | 297 | 5.0 | 9.0 | 0.00 | 0.52 | 0.00 | 55 | 1014.4 |
| 20260507110509 | 42 | 288 | 3.0 | 10.0 | 0.00 | 0.52 | 0.00 | 60 | 1014.5 |
| 20260507110026 | 40 | 260 | 5.0 | 10.0 | 0.00 | 0.52 | 0.00 | 64 | 1014.5 |
| 20260507105508 | 38 | 295 | 3.0 | 5.0 | 0.00 | 0.52 | 0.00 | 72 | 1014.6 |
| 20260507105010 | 36 | 310 | 2.0 | 4.0 | 0.00 | 0.52 | 0.00 | 81 | 1014.6 |
| 20260507104528 | 34 | 310 | 0.0 | 2.0 | 0.00 | 0.52 | 0.00 | 87 | 1014.6 |
| 20260507104010 | 34 | 270 | 0.0 | 0.0 | 0.00 | 0.52 | 0.00 | 87 | 1014.8 |
| 20260507103507 | 33 | 270 | 0.0 | 0.0 | 0.00 | 0.52 | 0.00 | 87 | 1014.8 |
| 20260507103022 | 33 | 299 | 0.0 | 0.0 | 0.00 | 0.52 | 0.00 | 87 | 1014.7 |
| 20260507102506 | 32 | 298 | 0.0 | 0.0 | 0.00 | 0.52 | 0.00 | 88 | 1014.7 |
| 20260507102008 | 32 | 298 | 0.0 | 0.0 | 0.00 | 0.52 | 0.00 | 88 | 1014.7 |
| 20260507101535 | 32 | 299 | 0.0 | 0.0 | 0.00 | 0.52 | 0.00 | 88 | 1014.8 |
| 20260507101008 | 32 | 299 | 0.0 | 0.0 | 0.00 | 0.52 | 0.00 | 88 | 1014.9 |
| 20260507100507 | 32 | 299 | 0.0 | 2.0 | 0.00 | 0.52 | 0.00 | 88 | 1014.9 |
| 20260507100032 | 32 | 270 | 0.0 | 2.0 | 0.00 | 0.52 | 0.00 | 88 | 1014.9 |
| 20260507095508 | 32 | 260 | 0.0 | 2.0 | 0.00 | 0.52 | 0.00 | 88 | 1015.0 |
| 20260507095012 | 32 | 275 | 0.0 | 3.0 | 0.00 | 0.52 | 0.00 | 88 | 1014.9 |
| 20260507094525 | 32 | 326 | 0.0 | 3.0 | 0.00 | 0.52 | 0.00 | 88 | 1015.0 |
| 20260507094010 | 32 | 309 | 0.0 | 2.0 | 0.00 | 0.52 | 0.00 | 87 | 1015.1 |
| 20260507093508 | 32 | 309 | 0.0 | 2.0 | 0.00 | 0.52 | 0.00 | 87 | 1015.1 |
| 20260507093032 | 32 | 209 | 0.0 | 2.0 | 0.00 | 0.52 | 0.00 | 87 | 1015.1 |
| 20260507092514 | 32 | 209 | 0.0 | 2.0 | 0.00 | 0.52 | 0.00 | 87 | 1015.1 |
| 20260507092010 | 32 | 331 | 0.0 | 2.0 | 0.00 | 0.52 | 0.00 | 87 | 1015.0 |
| 20260507091541 | 32 | 329 | 0.0 | 1.0 | 0.00 | 0.52 | 0.00 | 87 | 1015.1 |
| 20260507091007 | 32 | 306 | 0.0 | 2.0 | 0.00 | 0.52 | 0.00 | 87 | 1015.0 |
| 20260507090507 | 32 | 307 | 0.0 | 2.0 | 0.00 | 0.52 | 0.00 | 87 | 1015.1 |
| 20260507090022 | 32 | 281 | 0.0 | 4.0 | 0.00 | 0.52 | 0.00 | 87 | 1015.0 |
| 20260507085509 | 32 | 281 | 0.0 | 4.0 | 0.00 | 0.52 | 0.00 | 87 | 1015.1 |
| 20260507085008 | 32 | 328 | 0.0 | 0.0 | 0.00 | 0.54 | 0.00 | 86 | 1015.3 |
| 20260507084527 | 32 | 328 | 0.0 | 0.0 | 0.00 | 0.54 | 0.00 | 86 | 1015.3 |
| 20260507084012 | 32 | 329 | 0.0 | 0.0 | 0.00 | 0.54 | 0.00 | 85 | 1015.4 |
| 20260507083510 | 32 | 233 | 0.0 | 0.0 | 0.00 | 0.54 | 0.00 | 85 | 1015.4 |
| 20260507083026 | 32 | 233 | 0.0 | 0.0 | 0.00 | 0.54 | 0.00 | 85 | 1015.3 |
| 20260507082508 | 33 | 225 | 0.0 | 1.0 | 0.00 | 0.54 | 0.00 | 84 | 1015.5 |
| 20260507081531 | 33 | 225 | 0.0 | 2.0 | 0.00 | 0.54 | 0.00 | 84 | 1015.5 |
| 20260507081007 | 33 | 76 | 0.0 | 4.0 | 0.00 | 0.54 | 0.00 | 83 | 1015.4 |
| 20260507080515 | 33 | 76 | 0.0 | 5.0 | 0.00 | 0.54 | 0.00 | 82 | 1015.4 |
| 20260507080017 | 33 | 54 | 1.0 | 5.0 | 0.00 | 0.54 | 0.00 | 81 | 1015.3 |
| 20260507075508 | 33 | 287 | 0.0 | 2.0 | 0.00 | 0.54 | 0.00 | 82 | 1015.3 |
| 20260507075014 | 33 | 287 | 0.0 | 2.0 | 0.00 | 0.54 | 0.00 | 83 | 1015.5 |
| 20260507074521 | 33 | 287 | 0.0 | 2.0 | 0.00 | 0.54 | 0.00 | 83 | 1015.5 |
| 20260507074008 | 33 | 287 | 0.0 | 5.0 | 0.00 | 0.54 | 0.00 | 84 | 1015.6 |
| 20260507073511 | 33 | 286 | 1.0 | 5.0 | 0.00 | 0.54 | 0.00 | 85 | 1015.6 |
| 20260507073027 | 32 | 233 | 0.0 | 2.0 | 0.00 | 0.54 | 0.00 | 85 | 1015.7 |
| 20260507072511 | 32 | 291 | 0.0 | 4.0 | 0.00 | 0.54 | 0.00 | 85 | 1015.8 |
| 20260507072009 | 32 | 288 | 1.0 | 4.0 | 0.00 | 0.54 | 0.00 | 86 | 1015.9 |
| 20260507071526 | 32 | 270 | 0.0 | 6.0 | 0.00 | 0.54 | 0.00 | 86 | 1015.8 |
| 20260507071008 | 32 | 286 | 2.0 | 6.0 | 0.00 | 0.54 | 0.00 | 87 | 1016.0 |
| 20260507070509 | 32 | 33 | 0.0 | 3.0 | 0.00 | 0.54 | 0.00 | 87 | 1016.0 |
| 20260507070029 | 32 | 31 | 0.0 | 4.0 | 0.00 | 0.54 | 0.00 | 87 | 1016.1 |
| 20260507065514 | 32 | 311 | 0.0 | 4.0 | 0.00 | 0.55 | 0.00 | 87 | 1016.1 |
| 20260507065012 | 32 | 316 | 0.0 | 4.0 | 0.00 | 0.55 | 0.00 | 87 | 1016.1 |
| 20260507064527 | 32 | 275 | 0.0 | 1.0 | 0.00 | 0.55 | 0.00 | 87 | 1016.3 |
| 20260507064008 | 32 | 245 | 0.0 | 1.0 | 0.00 | 0.55 | 0.00 | 86 | 1016.4 |
| 20260507063511 | 32 | 245 | 0.0 | 1.0 | 0.00 | 0.55 | 0.00 | 86 | 1016.3 |
| 20260507063022 | 32 | 245 | 0.0 | 2.0 | 0.00 | 0.55 | 0.00 | 86 | 1016.4 |
| 20260507062514 | 32 | 245 | 0.0 | 4.0 | 0.00 | 0.55 | 0.00 | 86 | 1016.4 |
| 20260507062013 | 32 | 297 | 0.0 | 4.0 | 0.00 | 0.55 | 0.00 | 86 | 1016.5 |
| 20260507061532 | 32 | 292 | 1.0 | 4.0 | 0.00 | 0.55 | 0.00 | 85 | 1016.6 |
| 20260507061011 | 33 | 281 | 0.0 | 3.0 | 0.00 | 0.55 | 0.00 | 85 | 1016.7 |
| 20260507060508 | 33 | 291 | 0.0 | 0.0 | 0.00 | 0.55 | 0.00 | 84 | 1016.7 |
| 20260507060031 | 33 | 291 | 0.0 | 0.0 | 0.00 | 0.55 | 0.00 | 84 | 1016.8 |
| 20260507055510 | 33 | 291 | 0.0 | 0.0 | 0.00 | 0.55 | 0.55 | 84 | 1016.7 |
| 20260507055007 | 33 | 291 | 0.0 | 0.0 | 0.00 | 0.55 | 0.55 | 84 | 1016.9 |
| 20260507054526 | 33 | 291 | 0.0 | 4.0 | 0.00 | 0.55 | 0.55 | 83 | 1016.8 |
| 20260507054010 | 33 | 291 | 1.0 | 4.0 | 0.00 | 0.55 | 0.55 | 83 | 1016.8 |
| 20260507053511 | 33 | 287 | 0.0 | 0.0 | 0.00 | 0.55 | 0.55 | 83 | 1016.8 |
| 20260507053028 | 34 | 287 | 0.0 | 0.0 | 0.00 | 0.55 | 0.55 | 83 | 1017.0 |
| 20260507052509 | 34 | 287 | 0.0 | 0.0 | 0.00 | 0.55 | 0.55 | 83 | 1017.2 |
| 20260507052007 | 34 | 287 | 0.0 | 3.0 | 0.00 | 0.55 | 0.55 | 83 | 1017.2 |
| 20260507051525 | 34 | 287 | 0.0 | 3.0 | 0.00 | 0.55 | 0.55 | 83 | 1017.2 |
| 20260507051011 | 34 | 287 | 0.0 | 3.0 | 0.00 | 0.55 | 0.55 | 82 | 1017.2 |
| 20260507050509 | 34 | 315 | 0.0 | 0.0 | 0.00 | 0.55 | 0.55 | 82 | 1017.4 |
| 20260507050032 | 34 | 315 | 0.0 | 0.0 | 0.00 | 0.55 | 0.55 | 82 | 1017.6 |
| 20260507045508 | 35 | 315 | 0.0 | 0.0 | 0.00 | 0.56 | 0.55 | 82 | 1017.7 |
| 20260507045009 | 35 | 315 | 0.0 | 0.0 | 0.00 | 0.56 | 0.55 | 81 | 1017.6 |
| 20260507044541 | 35 | 315 | 0.0 | 0.0 | 0.00 | 0.56 | 0.55 | 81 | 1017.8 |
| 20260507044019 | 35 | 315 | 0.0 | 0.0 | 0.00 | 0.56 | 0.55 | 81 | 1017.7 |
| 20260507043510 | 35 | 315 | 0.0 | 0.0 | 0.00 | 0.56 | 0.55 | 81 | 1017.9 |
| 20260507043034 | 35 | 315 | 0.0 | 0.0 | 0.00 | 0.56 | 0.55 | 81 | 1017.7 |
| 20260507042512 | 35 | 315 | 0.0 | 0.0 | 0.00 | 0.56 | 0.55 | 80 | 1017.9 |
| 20260507042011 | 36 | 315 | 0.0 | 0.0 | 0.00 | 0.56 | 0.55 | 80 | 1018.0 |
| 20260507041526 | 36 | 315 | 0.0 | 0.0 | 0.00 | 0.56 | 0.55 | 80 | 1017.9 |
| 20260507041007 | 36 | 125 | 0.0 | 0.0 | 0.00 | 0.56 | 0.55 | 80 | 1018.0 |
| 20260507040511 | 36 | 125 | 0.0 | 0.0 | 0.00 | 0.56 | 0.55 | 80 | 1018.0 |
| 20260507035510 | 36 | 125 | 0.0 | 0.0 | 0.00 | 0.57 | 0.55 | 80 | 1018.0 |
| 20260507035015 | 36 | 222 | 0.0 | 0.0 | 0.00 | 0.57 | 0.55 | 80 | 1018.1 |
| 20260507034526 | 36 | 235 | 0.0 | 0.0 | 0.00 | 0.57 | 0.55 | 80 | 1018.1 |
| 20260507034010 | 36 | 179 | 0.0 | 0.0 | 0.00 | 0.57 | 0.55 | 80 | 1018.1 |
| 20260507033507 | 36 | 183 | 0.0 | 0.0 | 0.00 | 0.57 | 0.55 | 80 | 1018.2 |
| 20260507033015 | 36 | 177 | 0.0 | 0.0 | 0.00 | 0.57 | 0.55 | 80 | 1018.2 |
| 20260507032508 | 36 | 199 | 0.0 | 0.0 | 0.00 | 0.58 | 0.55 | 80 | 1018.2 |
| 20260507032011 | 36 | 199 | 0.0 | 0.0 | 0.00 | 0.58 | 0.55 | 80 | 1018.3 |
| 20260507031520 | 36 | 160 | 0.0 | 0.0 | 0.00 | 0.58 | 0.55 | 80 | 1018.4 |
| 20260507031011 | 36 | 160 | 0.0 | 0.0 | 0.00 | 0.58 | 0.55 | 79 | 1018.4 |
| 20260507030025 | 36 | 148 | 0.0 | 0.0 | 0.00 | 0.58 | 0.55 | 78 | 1018.3 |
| 20260507025511 | 36 | 148 | 0.0 | 0.0 | 0.00 | 0.58 | 0.55 | 77 | 1018.2 |
| 20260507023505 | 37 | 192 | 0.0 | 0.0 | 0.00 | 0.58 | 0.55 | 75 | 1018.3 |
| 20260507023013 | 37 | 192 | 0.0 | 1.0 | 0.00 | 0.58 | 0.55 | 75 | 1018.2 |
| 20260507022507 | 38 | 191 | 0.0 | 1.0 | 0.00 | 0.58 | 0.55 | 74 | 1018.2 |
| 20260507022006 | 38 | 191 | 0.0 | 1.0 | 0.00 | 0.58 | 0.55 | 74 | 1018.2 |
| 20260507021516 | 38 | 191 | 0.0 | 2.0 | 0.00 | 0.58 | 0.55 | 73 | 1018.1 |
| 20260507021010 | 38 | 191 | 0.0 | 2.0 | 0.00 | 0.58 | 0.55 | 73 | 1018.1 |
| 20260507020508 | 38 | 148 | 0.0 | 2.0 | 0.00 | 0.58 | 0.55 | 73 | 1018.0 |
| 20260507015014 | 39 | 150 | 0.0 | 4.0 | 0.00 | 0.58 | 0.55 | 71 | 1018.0 |
| 20260507014527 | 39 | 143 | 0.0 | 3.0 | 0.00 | 0.58 | 0.55 | 70 | 1018.0 |
| 20260507013508 | 39 | 156 | 0.0 | 3.0 | 0.00 | 0.58 | 0.55 | 70 | 1018.0 |
| 20260507012007 | 40 | 148 | 1.0 | 5.0 | 0.00 | 0.60 | 0.55 | 69 | 1018.0 |
| 20260507011511 | 40 | 169 | 0.0 | 5.0 | 0.00 | 0.60 | 0.55 | 68 | 1017.9 |
| 20260507011013 | 40 | 163 | 0.0 | 3.0 | 0.00 | 0.60 | 0.55 | 67 | 1017.9 |
| 20260507010509 | 40 | 270 | 0.0 | 5.0 | 0.00 | 0.60 | 0.55 | 67 | 1018.0 |
| 20260507005513 | 40 | 270 | 0.0 | 6.0 | 0.00 | 0.60 | 0.55 | 66 | 1018.0 |
| 20260507004523 | 41 | 270 | 1.0 | 6.0 | 0.00 | 0.60 | 0.55 | 65 | 1017.8 |
| 20260507004011 | 41 | 270 | 1.0 | 6.0 | 0.00 | 0.60 | 0.55 | 65 | 1018.0 |
| 20260507003511 | 42 | 270 | 1.0 | 5.0 | 0.00 | 0.60 | 0.55 | 65 | 1018.0 |
| 20260507003025 | 42 | 270 | 1.0 | 8.0 | 0.00 | 0.60 | 0.55 | 65 | 1018.1 |
| 20260507001009 | 42 | 270 | 2.0 | 8.0 | 0.00 | 0.60 | 0.55 | 65 | 1018.2 |
| 20260507000014 | 42 | 270 | 0.0 | 8.0 | 0.00 | 0.60 | 0.55 | 66 | 1018.4 |
| 20260506234521 | 42 | 270 | 1.0 | 6.0 | 0.00 | 0.60 | 0.55 | 64 | 1018.4 |
| 20260506225510 | 43 | 270 | 2.0 | 8.0 | 0.00 | 0.61 | 0.55 | 62 | 1018.4 |
| 20260506225008 | 43 | 270 | 2.0 | 8.0 | 0.00 | 0.61 | 0.55 | 63 | 1018.4 |
| 20260506224519 | 42 | 270 | 3.0 | 9.0 | 0.00 | 0.61 | 0.55 | 63 | 1018.4 |
| 20260506223508 | 43 | 270 | 1.0 | 8.0 | 0.00 | 0.61 | 0.55 | 63 | 1018.5 |
| 20260506223017 | 43 | 270 | 2.0 | 8.0 | 0.00 | 0.61 | 0.55 | 62 | 1018.5 |
| 20260506222509 | 43 | 270 | 3.0 | 6.0 | 0.00 | 0.62 | 0.55 | 62 | 1018.5 |
| 20260506222009 | 43 | 270 | 1.0 | 9.0 | 0.00 | 0.62 | 0.55 | 63 | 1018.7 |
| 20260506221530 | 43 | 270 | 3.0 | 9.0 | 0.00 | 0.62 | 0.55 | 62 | 1018.6 |
| 20260506221011 | 43 | 270 | 2.0 | 8.0 | 0.00 | 0.63 | 0.55 | 63 | 1018.7 |
| 20260506220510 | 43 | 270 | 0.0 | 8.0 | 0.00 | 0.63 | 0.55 | 62 | 1018.8 |
| 20260506220031 | 43 | 270 | 3.0 | 8.0 | 0.00 | 0.63 | 0.55 | 59 | 1018.9 |
| 20260506215510 | 44 | 270 | 2.0 | 6.0 | 0.00 | 0.64 | 0.55 | 58 | 1018.9 |
| 20260506215009 | 44 | 270 | 0.0 | 5.0 | 0.00 | 0.64 | 0.55 | 58 | 1019.2 |
| 20260506214528 | 44 | 270 | 1.0 | 5.0 | 0.00 | 0.65 | 0.55 | 59 | 1019.3 |
| 20260506214011 | 44 | 270 | 2.0 | 6.0 | 0.00 | 0.66 | 0.55 | 57 | 1019.3 |
| 20260506213511 | 44 | 270 | 2.0 | 6.0 | 0.00 | 0.66 | 0.55 | 57 | 1019.4 |
| 20260506212508 | 44 | 270 | 1.0 | 4.0 | 0.00 | 0.67 | 0.55 | 60 | 1019.5 |
| 20260506212009 | 44 | 270 | 1.0 | 6.0 | 0.00 | 0.67 | 0.55 | 60 | 1019.6 |
| 20260506211521 | 43 | 270 | 2.0 | 6.0 | 0.00 | 0.68 | 0.55 | 59 | 1019.7 |
| 20260506211010 | 43 | 270 | 2.0 | 6.0 | 0.00 | 0.68 | 0.55 | 59 | 1019.7 |
| 20260506210507 | 43 | 270 | 1.0 | 8.0 | 0.00 | 0.69 | 0.55 | 57 | 1019.7 |
| 20260506210024 | 43 | 270 | 1.0 | 8.0 | 0.00 | 0.69 | 0.55 | 59 | 1019.8 |
| 20260506205511 | 43 | 270 | 2.0 | 5.0 | 0.00 | 0.70 | 0.55 | 57 | 1019.9 |
| 20260506205012 | 43 | 270 | 2.0 | 5.0 | 0.00 | 0.70 | 0.55 | 56 | 1019.9 |
| 20260506204527 | 44 | 270 | 1.0 | 5.0 | 0.00 | 0.71 | 0.55 | 54 | 1020.0 |
| 20260506204008 | 44 | 270 | 1.0 | 5.0 | 0.00 | 0.71 | 0.55 | 53 | 1020.0 |
| 20260506203508 | 44 | 270 | 0.0 | 5.0 | 0.00 | 0.71 | 0.55 | 56 | 1020.1 |
| 20260506203026 | 43 | 270 | 2.0 | 5.0 | 0.00 | 0.72 | 0.55 | 58 | 1020.2 |
| 20260506202511 | 43 | 270 | 0.0 | 6.0 | 0.00 | 0.72 | 0.55 | 58 | 1020.2 |
| 20260506201537 | 43 | 270 | 1.0 | 5.0 | 0.00 | 0.74 | 0.55 | 59 | 1020.2 |
| 20260506201008 | 43 | 270 | 0.0 | 4.0 | 0.00 | 0.74 | 0.55 | 60 | 1020.3 |
| 20260506200509 | 42 | 270 | 1.0 | 4.0 | 0.00 | 0.74 | 0.55 | 63 | 1020.4 |
| 20260506200027 | 41 | 270 | 0.0 | 5.0 | 0.00 | 0.74 | 0.55 | 64 | 1020.4 |
| 20260506195509 | 41 | 270 | 1.0 | 6.0 | 0.01 | 0.75 | 0.55 | 63 | 1020.4 |
| 20260506195016 | 41 | 270 | 1.0 | 6.0 | 0.02 | 0.75 | 0.55 | 64 | 1020.5 |
| 20260506194527 | 41 | 270 | 0.0 | 6.0 | 0.02 | 0.75 | 0.55 | 65 | 1020.4 |
| 20260506194012 | 41 | 270 | 2.0 | 6.0 | 0.03 | 0.76 | 0.55 | 65 | 1020.5 |
| 20260506193508 | 41 | 270 | 1.0 | 6.0 | 0.05 | 0.76 | 0.55 | 65 | 1020.5 |
| 20260506193026 | 42 | 270 | 0.0 | 5.0 | 0.06 | 0.77 | 0.55 | 64 | 1020.6 |
| 20260506192508 | 41 | 270 | 1.0 | 6.0 | 0.07 | 0.77 | 0.55 | 65 | 1020.6 |
| 20260506192010 | 41 | 270 | 1.0 | 6.0 | 0.08 | 0.77 | 0.55 | 65 | 1020.6 |
| 20260506191528 | 41 | 270 | 1.0 | 4.0 | 0.09 | 0.77 | 0.55 | 65 | 1020.6 |
| 20260506190020 | 40 | 270 | 0.0 | 4.0 | 0.11 | 0.78 | 0.55 | 66 | 1020.8 |
| 20260506185509 | 39 | 270 | 0.0 | 4.0 | 0.10 | 0.77 | 0.54 | 66 | 1020.7 |
| 20260506185011 | 41 | 270 | 0.0 | 2.0 | 0.10 | 0.76 | 0.52 | 66 | 1020.8 |
| 20260506184526 | 40 | 270 | 0.0 | 2.0 | 0.11 | 0.76 | 0.52 | 68 | 1020.9 |
| 20260506184011 | 40 | 270 | 0.0 | 3.0 | 0.11 | 0.75 | 0.52 | 67 | 1020.9 |
| 20260506183505 | 39 | 270 | 0.0 | 3.0 | 0.10 | 0.74 | 0.50 | 69 | 1020.9 |
| 20260506182506 | 39 | 285 | 0.0 | 3.0 | 0.11 | 0.73 | 0.48 | 65 | 1021.1 |
| 20260506181518 | 38 | 270 | 0.0 | 3.0 | 0.12 | 0.72 | 0.46 | 66 | 1021.2 |
| 20260506181008 | 39 | 270 | 1.0 | 3.0 | 0.14 | 0.73 | 0.46 | 65 | 1021.2 |
| 20260506180022 | 39 | 270 | 1.0 | 5.0 | 0.15 | 0.72 | 0.44 | 67 | 1021.4 |
| 20260506175510 | 39 | 270 | 0.0 | 5.0 | 0.17 | 0.72 | 0.44 | 69 | 1021.4 |
| 20260506175007 | 40 | 270 | 0.0 | 3.0 | 0.18 | 0.72 | 0.43 | 64 | 1021.4 |
| 20260506174523 | 40 | 270 | 1.0 | 3.0 | 0.18 | 0.72 | 0.42 | 67 | 1021.4 |
| 20260506174012 | 40 | 270 | 1.0 | 3.0 | 0.18 | 0.72 | 0.41 | 67 | 1021.4 |
| 20260506173504 | 40 | 319 | 0.0 | 2.0 | 0.18 | 0.71 | 0.40 | 67 | 1021.4 |
| 20260506173008 | 40 | 270 | 0.0 | 4.0 | 0.17 | 0.70 | 0.38 | 68 | 1021.4 |
| 20260506172504 | 40 | 270 | 0.0 | 4.0 | 0.17 | 0.70 | 0.37 | 68 | 1021.4 |
| 20260506172006 | 40 | 302 | 1.0 | 3.0 | 0.17 | 0.68 | 0.35 | 69 | 1021.4 |
| 20260506171511 | 40 | 270 | 0.0 | 3.0 | 0.17 | 0.68 | 0.34 | 67 | 1021.3 |
| 20260506170509 | 39 | 292 | 0.0 | 2.0 | 0.16 | 0.67 | 0.31 | 71 | 1021.3 |
| 20260506165508 | 38 | 270 | 0.0 | 4.0 | 0.13 | 0.65 | 0.27 | 73 | 1021.1 |
| 20260506164524 | 37 | 270 | 1.0 | 3.0 | 0.12 | 0.65 | 0.24 | 74 | 1021.2 |
| 20260506164014 | 37 | 270 | 1.0 | 5.0 | 0.12 | 0.65 | 0.23 | 77 | 1021.3 |
| 20260506163513 | 37 | 270 | 0.0 | 5.0 | 0.12 | 0.65 | 0.22 | 79 | 1021.3 |
| 20260506163036 | 37 | 270 | 2.0 | 5.0 | 0.11 | 0.65 | 0.21 | 79 | 1021.2 |
| 20260506162512 | 37 | 270 | 2.0 | 5.0 | 0.11 | 0.65 | 0.20 | 80 | 1021.0 |
| 20260506162004 | 37 | 270 | 3.0 | 5.0 | 0.10 | 0.65 | 0.18 | 81 | 1020.9 |
| 20260506161510 | 37 | 270 | 1.0 | 5.0 | 0.10 | 0.65 | 0.17 | 82 | 1020.7 |
| 20260506161004 | 36 | 270 | 0.0 | 4.0 | 0.09 | 0.66 | 0.16 | 83 | 1020.8 |
| 20260506160510 | 36 | 270 | 1.0 | 4.0 | 0.09 | 0.66 | 0.15 | 84 | 1020.8 |
| 20260506160016 | 35 | 270 | 1.0 | 5.0 | 0.09 | 0.66 | 0.14 | 84 | 1020.8 |
| 20260506155507 | 35 | 270 | 2.0 | 5.0 | 0.09 | 0.68 | 0.14 | 85 | 1020.7 |
| 20260506155010 | 35 | 270 | 2.0 | 4.0 | 0.08 | 0.68 | 0.13 | 86 | 1020.7 |
| 20260506154530 | 35 | 270 | 1.0 | 6.0 | 0.08 | 0.68 | 0.12 | 86 | 1020.7 |
| 20260506154012 | 35 | 270 | 1.0 | 6.0 | 0.07 | 0.69 | 0.11 | 87 | 1020.7 |
| 20260506153509 | 35 | 270 | 2.0 | 6.0 | 0.06 | 0.69 | 0.10 | 87 | 1020.6 |
| 20260506153024 | 34 | 270 | 2.0 | 6.0 | 0.06 | 0.70 | 0.10 | 88 | 1020.7 |
| 20260506152506 | 34 | 4 | 2.0 | 5.0 | 0.06 | 0.70 | 0.09 | 88 | 1020.6 |
| 20260506152012 | 34 | 275 | 1.0 | 7.0 | 0.05 | 0.70 | 0.08 | 89 | 1020.5 |
| 20260506151527 | 33 | 344 | 1.0 | 7.0 | 0.04 | 0.70 | 0.07 | 89 | 1020.6 |
| 20260506151011 | 33 | 5 | 1.0 | 8.0 | 0.04 | 0.72 | 0.07 | 89 | 1020.6 |
| 20260506150503 | 33 | 319 | 1.0 | 8.0 | 0.03 | 0.72 | 0.06 | 90 | 1020.6 |
| 20260506150013 | 33 | 247 | 1.0 | 5.0 | 0.02 | 0.72 | 0.05 | 90 | 1020.4 |
| 20260506145508 | 33 | 298 | 1.0 | 5.0 | 0.02 | 0.73 | 0.05 | 91 | 1020.4 |
| 20260506145006 | 32 | 238 | 0.0 | 2.0 | 0.02 | 0.73 | 0.05 | 91 | 1020.3 |
| 20260506144517 | 32 | 256 | 0.0 | 0.0 | 0.01 | 0.72 | 0.04 | 92 | 1020.4 |
| 20260506144006 | 32 | 258 | 0.0 | 0.0 | 0.01 | 0.72 | 0.04 | 92 | 1020.3 |
| 20260506143511 | 31 | 255 | 0.0 | 0.0 | 0.01 | 0.72 | 0.04 | 92 | 1020.3 |
| 20260506143021 | 31 | 172 | 0.0 | 0.0 | 0.01 | 0.72 | 0.04 | 92 | 1020.2 |
| 20260506142509 | 31 | 302 | 0.0 | 0.0 | 0.00 | 0.71 | 0.03 | 92 | 1020.1 |